Back to catalog

THORAD DELTA 1 DEB

AliveSSO
NORAD 42608·DEBRIS·🇺🇸 United States

Launched Nov 15, 1974 from Vandenberg Space Force Base

Loading…

Next Passes (next 24 hours)

TLE

FreshSource: Space-Track

Epoch: Sep 11, 2026, 22:29 UTC

1 42608U 74089FZ  26254.93735294 -.00000034  00000-0  98409-4 0  9991
2 42608 102.5486 244.0031 0074051  62.0031 298.8491 12.28118100574079

Track THORAD DELTA 1 DEB in real time with AllMySat

Download on the App Store